sat.trackr.live / text

‹ back to catalog

SAOCOM 1A

NORAD 43641 · 2018-076A

PAYLOAD ACTIVE UNKNOWN

§ Identity

Operator
Country
ARGN
Launch date
2018-10-08
Launch site
AFWTR
Launch vehicle
Mass (kg)
RCS (m²)

External: N2YO · Heavens-Above · Gunter

§ Orbital elements

Epoch: 2026-05-25T04:22:48.391392Z

Period
97.16 min
Inclination
97.8892°
Eccentricity
0.0001513
Mean motion
14.82151966 rev/d
Perigee alt
621.5 km
Apogee alt
623.6 km
Semi-major
7,000.7 km
B*
-3.7335e-5
RAAN
332.2653°
Arg perigee
81.2655°
Mean anomaly
278.8730°
Rev number
41,269

§ Raw data

SAOCOM 1A1 43641U 18076A   26145.18250453 -.00000349  00000+0 -37335-4 0  99982 43641  97.8892 332.2653 0001513  81.2655 278.8730 14.82151966412694

JSON: /api/v1/satellites/43641 · /tle

For live sub-satellite position, see the globe view (requires WebGL).

§ Visibility from observer

Set your observer location to see the next 7 days of passes ≥ 10°. The values pass through the URL so the page stays shareable.

No JS? Fill the form by hand. The geolocation button needs JavaScript.

§ Radio — SatNOGS DB

ModeDescriptionDownlinkUplink
BPSK S-band telemetry 2.256 GHz

1 transmitter · refreshed weekly from db.satnogs.org